Location: Hormuz
(27.0871°N, 56.4580°E)
Time: 11:15:12
(UTC+04:30)

ISS - Visible Passes

Search period start: 24 June 2021 00:00
Search period end: 04 July 2021 00:00
Orbit: 417 x 422 km, 51.6° (Epoch: 23 June)

Date Brightness Start Highest point End Pass type
(mag) Time Alt. Az. Time Alt. Az. Time Alt. Az.
24 Jun -2.9 04:20:59 33° S 04:21:53 41° SE 04:25:04 10° ENE visible
25 Jun -1.3 03:35:35 18° E 03:35:35 18° E 03:37:06 10° ENE visible
25 Jun -2.0 05:08:33 10° W 05:11:12 22° NW 05:13:55 10° NNE visible
26 Jun -3.1 04:23:05 37° WNW 04:23:41 41° NW 04:26:53 10° NNE visible
27 Jun -2.1 03:37:33 34° NE 03:37:33 34° NE 03:39:35 10° NE visible
28 Jun -0.3 02:51:56 11° ENE 02:51:56 11° ENE 02:52:01 10° ENE visible
28 Jun -1.3 04:24:54 12° NW 04:25:46 13° NW 04:27:24 10° N visible
29 Jun -1.4 03:39:13 19° NNW 03:39:13 19° NNW 03:40:50 10° NNE visible
30 Jun -0.3 02:53:29 12° NNE 02:53:29 12° NNE 02:53:49 10° NNE visible
